Regional Weather Roundup
Issued by NWS

Home | Current Version | Previous Version | Graphics & Text | Print | Product List | Glossary On
Versions: 1 2 3 4 5 6 7 8 9 10 11 12 13 14 15 16 17 18 19 20 21 22 23 24 25 26 27 28 29 30 31 32 33 34 35 36 37 38 39 40 41 42 43 44 45 46 47 48 49 50
000
ASUS45 KBOI 250510
RWRID

IDAHO REGIONAL WEATHER ROUNDUP
NATIONAL WEATHER SERVICE BOISE ID
1100 PM MDT SUN MAY 24 2015

NOTE: "FAIR" INDICATES FEW OR NO CLOUDS BELOW 12000 FEET
WITH NO SIGNIFICANT WEATHER AND/OR OBSTRUCTIONS TO VISIBILITY

IDZ012-014-250600-
SOUTHWEST IDAHO


CITY           SKY/WX    TMP DP  RH WIND       PRES   REMARKS
BOISE          CLEAR     60  45  57 SE10      29.86R
CALDWELL       CLEAR     64  43  45 W6        29.84R
MOUNTAIN HOME  PTCLDY    58  48  71 E13       29.89R
$$

IDZ016-017-250600-
SOUTHCENTRAL IDAHO


CITY           SKY/WX    TMP DP  RH WIND       PRES   REMARKS
BURLEY         MOCLDY    50  47  89 SW6       29.92R
JEROME         MOCLDY    51  45  79 CALM      29.94R
TWIN FALLS     CLOUDY    53  47  79 S12       29.90S
$$

IDZ019>023-250600-
SOUTHEAST IDAHO


CITY           SKY/WX    TMP DP  RH WIND       PRES   REMARKS
IDAHO FALLS    CLOUDY    55  47  74 S6        29.91R
POCATELLO      MOCLDY    53  46  77 S8        29.93R
REXBURG        CLOUDY    56  43  61 E6        29.92R
$$

IDZ006-010-011-018-031-032-250600-
CENTRAL IDAHO MOUNTAINS


CITY           SKY/WX    TMP DP  RH WIND       PRES   REMARKS
MCCALL         PTCLDY    54  40  59 N3        29.92R
HAILEY         PTCLDY    48  46  93 NW9       29.99S
STANLEY          N/A     45  38  76 SW3       30.01S
SALMON         MOCLDY    55  43  62 CALM      29.91S
CHALLIS        PTCLDY    51  38  60 NW3       29.94R
$$

IDZ002-004-006-007-026-250600-
NORTHERN IDAHO


CITY           SKY/WX    TMP DP  RH WIND       PRES   REMARKS
LEWISTON       MOCLDY    68  53  58 S5        29.82R
LOWELL           N/A     57  54  89 CALM      29.86R
COEUR D`ALENE  CLOUDY    63  48  59 CALM      29.84R
MULLAN PASS    CLOUDY    48  38  68 NW5       29.99S
$$


USA.gov is the U.S. government's official web portal to all federal, state and local government web resources and services.